Change the Weather History Date:

Tuesday, March 11, 2014

  Actual Average (KBRL) Record (KBRL)
Temperature  
Mean Temperature 44 °F 39 °F  
Max Temperature 56 °F 49 °F 79 °F (2006)
Min Temperature 32 °F 30 °F -2 °F (1948)
Degree Days  
Heating Degree Days 21 26  
Month to date heating degree days 307  
Since 1 July heating degree days 4685  
Cooling Degree Days 0 0  
Month to date cooling degree days 0  
Year to date cooling degree days 0  
Moisture  
Dew Point 37 °F    
Average Humidity 87    
Maximum Humidity 100    
Minimum Humidity 64    
Precipitation  
Precipitation 0.10 in 0.09 in 0.52 in (1951)
Month to date precipitation 0.94  
Year to date precipitation 3.80  
Sea Level Pressure  
Sea Level Pressure 29.66 in    
Wind  
Wind Speed 6 mph (NE)    
Max Wind Speed 25 mph    
Max Gust Speed 33 mph    
Visibility 8 miles    
Events Rain , Thunderstorm    
T = Trace of Precipitation, MM = Missing Value Source: NWS Daily Summary

Daily Weather History Graph

Daily Weather History Graph

Search for Another Location

Airport or City:

Trip Planner

Search our weather history database for the weather conditions in past years. The results will help you decide how hot, cold, wet, or windy it might be!

Date:

Astronomy

Mar. 11, 2014 Rise Set
Actual Time 7:20 AM CDT 7:05 PM CDT
Civil Twilight 6:53 AM CDT 7:32 PM CDT
Nautical Twilight 6:21 AM CDT 8:04 PM CDT
Astronomical Twilight 5:50 AM CDT 8:35 PM CDT
Moon 2:40 PM CDT (3/11) 4:15 AM CDT (3/11)
Length of Visible Light 12h 38m
Length of Day
11h 44m
Waxing Gibbous, 78% of the Moon is Illuminated
Mar 11
Waxing Gibbous
Mar 16
Full
Mar 23
Last Quarter
Mar 30
New
Apr 7
First Quarter

Hourly Weather History & Observations

Time (CDT) Temp. Windchill Dew Point Humidity Pressure Visibility Wind Dir Wind Speed Gust Speed Precip Events Conditions
12:15 AM 37.2 °F - 35.2 °F 93% 29.71 in 10.0 mi Calm Calm - N/A   Clear
12:30 AM 38.7 °F - 35.6 °F 89% 29.70 in 10.0 mi Calm Calm - N/A   Clear
12:55 AM 34.7 °F - 32.9 °F 93% 29.70 in 10.0 mi Calm Calm - N/A   Clear
1:15 AM 37.8 °F 35.3 °F 34.9 °F 89% 29.70 in 10.0 mi South 3.5 mph - N/A   Clear
1:35 AM 35.1 °F 29.3 °F 33.8 °F 95% 29.70 in 10.0 mi South 6.9 mph - N/A   Clear
1:55 AM 36.9 °F 34.3 °F 35.2 °F 94% 29.70 in 10.0 mi SSW 3.5 mph - N/A   Clear
2:15 AM 37.6 °F - 34.7 °F 89% 29.71 in 10.0 mi Calm Calm - N/A   Clear
2:35 AM 35.8 °F - 34.2 °F 94% 29.71 in 10.0 mi Calm Calm - N/A   Clear
2:55 AM 34.0 °F - 32.4 °F 94% 29.70 in 10.0 mi Calm Calm - N/A   Clear
3:15 AM 33.3 °F - 32.2 °F 96% 29.68 in 7.0 mi Calm Calm - N/A   Clear
3:35 AM 33.8 °F 30.8 °F 32.9 °F 96% 29.68 in 7.0 mi NE 3.5 mph - N/A   Clear
3:55 AM 33.8 °F 30.8 °F 32.9 °F 96% 29.67 in 7.0 mi East 3.5 mph - N/A   Clear
4:10 AM 33.4 °F - 32.4 °F 96% 29.67 in 7.0 mi Calm Calm - N/A   Clear
4:35 AM 34.0 °F - 32.9 °F 96% 29.65 in 7.0 mi Calm Calm - N/A   Clear
4:55 AM 34.7 °F - 33.3 °F 94% 29.65 in 7.0 mi Calm Calm - N/A   Clear
5:15 AM 33.6 °F 29.4 °F 32.0 °F 94% 29.66 in 7.0 mi NNE 4.6 mph - N/A   Clear
5:35 AM 32.9 °F 28.5 °F 32.0 °F 96% 29.65 in 7.0 mi ENE 4.6 mph - N/A   Clear
6:15 AM 33.3 °F 30.2 °F 32.2 °F 96% 29.65 in 7.0 mi East 3.5 mph - N/A   Clear
6:35 AM 33.4 °F - 32.4 °F 96% 29.65 in 7.0 mi Calm Calm - N/A   Clear
6:55 AM 33.8 °F 30.8 °F 32.7 °F 96% 29.65 in 7.0 mi East 3.5 mph - N/A   Clear
7:15 AM 33.3 °F 28.9 °F 32.2 °F 96% 29.65 in 7.0 mi East 4.6 mph - N/A   Clear
7:35 AM 33.6 °F 29.4 °F 32.5 °F 96% 29.65 in 5.0 mi East 4.6 mph - N/A   Clear
7:55 AM 33.8 °F 29.6 °F 32.9 °F 96% 29.65 in 5.0 mi East 4.6 mph - N/A   Clear
8:15 AM 33.8 °F 28.6 °F 33.1 °F 97% 29.65 in 4.0 mi ENE 5.8 mph - N/A   Clear
8:35 AM 34.9 °F 29.9 °F 34.3 °F 98% 29.66 in 4.0 mi ENE 5.8 mph - N/A   Clear
8:55 AM 34.7 °F 31.8 °F 33.8 °F 97% 29.65 in 4.0 mi East 3.5 mph - N/A   Clear
9:15 AM 35.6 °F 31.7 °F 35.1 °F 98% 29.65 in 4.0 mi East 4.6 mph - N/A   Clear
9:35 AM 35.8 °F 30.9 °F 35.1 °F 97% 29.65 in 4.0 mi ENE 5.8 mph - N/A   Clear
9:55 AM 37.0 °F 32.4 °F 35.8 °F 95% 29.65 in 5.0 mi East 5.8 mph - N/A   Clear
10:15 AM 37.6 °F 33.1 °F 36.1 °F 95% 29.65 in 5.0 mi East 5.8 mph - N/A   Clear
10:35 AM 37.6 °F 33.1 °F 36.5 °F 96% 29.64 in 5.0 mi SE 5.8 mph - N/A   Clear
10:55 AM 41.5 °F 38.6 °F 39.4 °F 92% 29.64 in 7.0 mi ESE 4.6 mph - N/A   Clear
11:10 AM 44.2 °F 41.0 °F 40.3 °F 86% 29.63 in 7.0 mi ESE 5.8 mph - N/A   Clear
11:35 AM 46.9 °F - 41.4 °F 81% 29.64 in 10.0 mi ESE 4.6 mph - N/A   Clear
11:55 AM 49.5 °F - 42.4 °F 77% 29.63 in 10.0 mi SE 4.6 mph - N/A   Clear
12:15 PM 51.1 °F - 42.6 °F 73% 29.62 in 10.0 mi SSE 6.9 mph - N/A   Clear
12:35 PM 53.1 °F - 44.1 °F 71% 29.62 in 10.0 mi Calm Calm - N/A   Clear
12:55 PM 54.3 °F - 45.5 °F 72% 29.61 in 10.0 mi East 4.6 mph - N/A   Clear
1:15 PM 55.9 °F - 44.8 °F 66% 29.60 in 10.0 mi East 4.6 mph - N/A   Clear
1:35 PM 56.7 °F - 45.3 °F 66% 29.59 in 10.0 mi ENE 4.6 mph - N/A   Clear
1:55 PM 56.8 °F - 45.0 °F 64% 29.59 in 10.0 mi ENE 4.6 mph - N/A   Clear
2:15 PM 56.3 °F - 47.1 °F 71% 29.59 in 10.0 mi NE 4.6 mph - N/A   Clear
2:35 PM 56.3 °F - 46.0 °F 68% 29.59 in 10.0 mi NE 5.8 mph - N/A   Clear
2:55 PM 55.9 °F - 46.9 °F 72% 29.59 in 10.0 mi NNE 9.2 mph - N/A   Clear
3:15 PM 54.9 °F - 46.4 °F 73% 29.59 in 10.0 mi NNE 10.4 mph - N/A   Clear
3:35 PM 54.5 °F - 45.7 °F 72% 29.61 in 10.0 mi NNE 10.4 mph - N/A   Clear
3:55 PM 52.7 °F - 45.9 °F 78% 29.61 in 7.0 mi NNE 17.3 mph - N/A   Clear
4:15 PM 51.8 °F - 45.3 °F 79% 29.61 in 7.0 mi NNE 13.8 mph - N/A   Clear
4:35 PM 51.1 °F - 44.6 °F 78% 29.62 in 7.0 mi NNE 17.3 mph 23.0 mph N/A   Scattered Clouds
4:55 PM 49.5 °F - 43.3 °F 79% 29.62 in 7.0 mi NNE 19.6 mph 26.5 mph N/A   Scattered Clouds
5:15 PM 48.2 °F - 41.7 °F 78% 29.62 in 10.0 mi NE 21.9 mph - N/A   Scattered Clouds
5:35 PM 46.8 °F - 40.8 °F 80% 29.61 in 10.0 mi NE 17.3 mph - N/A   Scattered Clouds
5:55 PM 46.0 °F 38.0 °F 38.8 °F 76% 29.61 in 10.0 mi NE 21.9 mph 29.9 mph N/A   Clear
6:15 PM 45.1 °F 36.9 °F 38.7 °F 78% 29.61 in 10.0 mi NE 21.9 mph 25.3 mph N/A   Clear
6:35 PM 44.4 °F 36.1 °F 36.9 °F 75% 29.63 in 10.0 mi NNE 20.7 mph 32.2 mph N/A   Clear
6:55 PM 43.7 °F 35.2 °F 35.6 °F 73% 29.66 in 10.0 mi NNE 20.7 mph 26.5 mph N/A   Mostly Cloudy
7:15 PM 43.0 °F 34.5 °F 35.8 °F 76% 29.67 in 10.0 mi NNE 19.6 mph 25.3 mph N/A   Overcast
7:35 PM 42.1 °F 33.3 °F 35.8 °F 78% 29.68 in 10.0 mi NNE 19.6 mph 24.2 mph N/A   Mostly Cloudy
7:55 PM 41.5 °F 33.2 °F 36.3 °F 82% 29.69 in 10.0 mi North 17.3 mph 28.8 mph N/A   Mostly Cloudy
8:15 PM 40.5 °F 31.2 °F 36.0 °F 84% 29.70 in 10.0 mi North 19.6 mph 25.3 mph N/A Thunderstorm Overcast
8:35 PM 39.7 °F 29.7 °F 35.8 °F 86% 29.71 in 10.0 mi North 21.9 mph 26.5 mph N/A   Overcast
8:55 PM 39.2 °F 28.5 °F 35.6 °F 87% 29.72 in 10.0 mi NNE 24.2 mph 29.9 mph N/A   Overcast
9:15 PM 39.2 °F 28.3 °F 35.6 °F 87% 29.72 in 10.0 mi NNE 25.3 mph 33.4 mph N/A   Mostly Cloudy
9:35 PM 39.2 °F 28.5 °F 35.4 °F 86% 29.72 in 10.0 mi NNE 24.2 mph 28.8 mph N/A   Mostly Cloudy
9:55 PM 39.2 °F 28.3 °F 35.1 °F 85% 29.71 in 10.0 mi NNE 25.3 mph 31.1 mph N/A   Overcast
10:15 PM 38.3 °F 27.8 °F 34.9 °F 87% 29.71 in 10.0 mi NE 21.9 mph 33.4 mph N/A Rain Light Rain
10:35 PM 36.5 °F 26.3 °F 36.5 °F 100% 29.72 in 5.0 mi NE 18.4 mph 24.2 mph 0.04 in Rain Rain
10:55 PM 36.5 °F 27.4 °F 36.5 °F 100% 29.71 in 5.0 mi NNE 15.0 mph 25.3 mph 0.09 in Rain Light Rain
11:15 PM 36.1 °F 25.0 °F 36.1 °F 100% 29.72 in 10.0 mi NNE 21.9 mph 27.6 mph N/A Rain Light Rain
11:35 PM 35.1 °F 23.8 °F 35.1 °F 100% 29.73 in 10.0 mi North 20.7 mph - N/A Rain Light Rain
11:55 PM 33.3 °F 22.5 °F 33.3 °F 100% 29.74 in 7.0 mi North 17.3 mph 24.2 mph 0.01 in Rain Light Rain